TimePDT,TemperatureF,Dew PointF,Humidity,Sea Level PressureIn,VisibilityMPH,Wind Direction,Wind SpeedMPH,Gust SpeedMPH,PrecipitationIn,Events,Conditions,WindDirDegrees,DateUTC
12:15 AM,59.0,59.0,100,29.96,10.0,NE,5.8,-,N/A,,Clear,40,2013-08-16 07:15:00
12:35 AM,57.2,57.2,100,29.96,10.0,NNE,5.8,-,N/A,,Clear,30,2013-08-16 07:35:00
12:55 AM,57.2,57.2,100,29.96,10.0,North,4.6,-,N/A,,Clear,350,2013-08-16 07:55:00
1:15 AM,57.2,57.2,100,29.96,10.0,North,5.8,-,N/A,,Clear,350,2013-08-16 08:15:00
1:35 AM,57.2,57.2,100,29.95,10.0,North,4.6,-,N/A,,Clear,10,2013-08-16 08:35:00
1:55 AM,57.2,57.2,100,29.96,10.0,NNE,4.6,-,N/A,,Clear,20,2013-08-16 08:55:00
2:15 AM,57.2,57.2,100,29.95,10.0,North,5.8,-,N/A,,Clear,360,2013-08-16 09:15:00
2:35 AM,57.2,57.2,100,29.95,10.0,North,3.5,-,N/A,,Clear,360,2013-08-16 09:35:00
2:55 AM,57.2,57.2,100,29.95,10.0,North,5.8,-,N/A,,Clear,10,2013-08-16 09:55:00
3:15 AM,57.2,57.2,100,29.95,10.0,Calm,Calm,-,N/A,,Mostly Cloudy,0,2013-08-16 10:15:00
3:35 AM,57.2,57.2,100,29.95,10.0,Calm,Calm,-,N/A,,Scattered Clouds,0,2013-08-16 10:35:00
3:55 AM,57.2,57.2,100,29.95,10.0,Calm,Calm,-,N/A,,Mostly Cloudy,0,2013-08-16 10:55:00
4:15 AM,57.2,57.2,100,29.95,10.0,Calm,Calm,-,N/A,,Overcast,0,2013-08-16 11:15:00
4:35 AM,57.2,57.2,100,29.95,9.0,Calm,Calm,-,N/A,,Overcast,0,2013-08-16 11:35:00
4:55 AM,57.2,57.2,100,29.96,4.0,Calm,Calm,-,N/A,,Overcast,0,2013-08-16 11:55:00
5:15 AM,57.2,57.2,100,29.96,1.0,NNW,3.5,-,N/A,,Overcast,340,2013-08-16 12:15:00
5:35 AM,57.2,57.2,100,29.96,-9999.0,NW,3.5,-,N/A,,Overcast,320,2013-08-16 12:35:00
5:55 AM,57.2,57.2,100,29.97,-9999.0,NNW,5.8,-,N/A,,Overcast,340,2013-08-16 12:55:00
6:15 AM,57.2,57.2,100,29.97,3.0,North,5.8,-,N/A,,Overcast,350,2013-08-16 13:15:00
6:35 AM,57.2,57.2,100,29.97,2.5,North,5.8,-,N/A,,Overcast,350,2013-08-16 13:35:00
6:55 AM,57.2,57.2,100,29.97,10.0,North,5.8,-,N/A,,Overcast,350,2013-08-16 13:55:00
7:15 AM,57.2,57.2,100,29.98,9.0,North,4.6,-,N/A,,Overcast,350,2013-08-16 14:15:00
7:35 AM,59.0,59.0,100,29.98,10.0,North,3.5,-,N/A,,Overcast,350,2013-08-16 14:35:00
7:55 AM,59.0,59.0,100,29.98,10.0,North,4.6,-,N/A,,Overcast,360,2013-08-16 14:55:00
8:15 AM,59.0,59.0,100,29.99,10.0,Calm,Calm,-,N/A,,Overcast,0,2013-08-16 15:15:00
8:35 AM,60.8,60.8,100,29.99,9.0,Calm,Calm,-,N/A,,Overcast,0,2013-08-16 15:35:00
8:55 AM,62.6,62.6,100,29.99,10.0,ENE,3.5,-,N/A,,Overcast,70,2013-08-16 15:55:00
9:15 AM,62.6,62.6,100,29.99,-9999.0,Calm,Calm,-,N/A,,Mostly Cloudy,0,2013-08-16 16:15:00
9:35 AM,64.4,62.6,94,29.99,-9999.0,SE,3.5,-,N/A,,Unknown,130,2013-08-16 16:35:00
9:55 AM,66.2,62.6,88,29.99,-9999.0,NE,3.5,-,N/A,,Unknown,50,2013-08-16 16:55:00
10:15 AM,68.0,62.6,83,29.98,-9999.0,ENE,3.5,-,N/A,,Clear,70,2013-08-16 17:15:00
10:35 AM,71.6,62.6,73,29.99,-9999.0,East,4.6,-,N/A,,Clear,80,2013-08-16 17:35:00
10:55 AM,73.4,62.6,69,29.99,-9999.0,East,4.6,-,N/A,,Clear,90,2013-08-16 17:55:00
11:15 AM,75.2,62.6,65,29.98,-9999.0,SE,4.6,-,N/A,,Clear,140,2013-08-16 18:15:00
11:35 AM,77.0,62.6,61,29.98,-9999.0,SE,4.6,-,N/A,,Clear,140,2013-08-16 18:35:00
11:55 AM,77.0,62.6,61,29.98,-9999.0,SE,4.6,-,N/A,,Clear,140,2013-08-16 18:55:00
12:15 PM,80.6,62.6,54,29.97,-9999.0,SE,5.8,-,N/A,,Clear,130,2013-08-16 19:15:00
12:35 PM,82.4,62.6,51,29.97,-9999.0,East,5.8,-,N/A,,Clear,100,2013-08-16 19:35:00
12:55 PM,84.2,62.6,48,29.97,-9999.0,SE,9.2,-,N/A,Rain,Light Rain,130,2013-08-16 19:55:00
1:15 PM,84.2,60.8,45,29.97,-9999.0,ESE,4.6,-,N/A,Rain,Light Rain,110,2013-08-16 20:15:00
1:35 PM,86.0,59.0,40,29.96,-9999.0,SSW,11.5,19.6,N/A,Rain,Light Rain,210,2013-08-16 20:35:00
1:55 PM,89.6,59.0,36,29.96,-9999.0,NNW,8.1,-,N/A,,Clear,330,2013-08-16 20:55:00
2:15 PM,86.0,57.2,37,29.96,-9999.0,WSW,11.5,-,N/A,,Clear,250,2013-08-16 21:15:00
2:35 PM,86.0,57.2,37,29.96,-9999.0,SW,17.3,-,N/A,,Clear,230,2013-08-16 21:35:00
2:55 PM,86.0,57.2,37,29.96,-9999.0,SW,16.1,21.9,N/A,,Clear,230,2013-08-16 21:55:00
3:15 PM,86.0,57.2,37,29.95,-9999.0,WSW,15.0,-,N/A,,Clear,240,2013-08-16 22:15:00
3:35 PM,84.2,57.2,40,29.95,-9999.0,SW,12.7,-,N/A,,Clear,230,2013-08-16 22:35:00
3:55 PM,84.2,57.2,40,29.95,-9999.0,West,10.4,17.3,N/A,,Clear,260,2013-08-16 22:55:00
4:15 PM,86.0,53.6,33,29.95,-9999.0,WSW,9.2,18.4,N/A,,Clear,250,2013-08-16 23:15:00
4:35 PM,84.2,55.4,37,29.95,-9999.0,North,9.2,-,N/A,,Clear,350,2013-08-16 23:35:00
4:55 PM,84.2,53.6,35,29.95,-9999.0,WSW,9.2,-,N/A,,Clear,240,2013-08-16 23:55:00
5:15 PM,80.6,57.2,45,29.95,-9999.0,WSW,9.2,-,N/A,,Clear,240,2013-08-17 00:15:00
5:35 PM,77.0,55.4,47,29.94,-9999.0,SE,4.6,-,N/A,,Clear,140,2013-08-17 00:35:00
5:55 PM,77.0,55.4,47,29.94,-9999.0,SSW,6.9,16.1,N/A,,Clear,210,2013-08-17 00:55:00
6:15 PM,77.0,53.6,44,29.94,-9999.0,SSE,3.5,-,N/A,,Clear,160,2013-08-17 01:15:00
6:35 PM,75.2,55.4,50,29.94,-9999.0,South,5.8,-,N/A,,Clear,170,2013-08-17 01:35:00
6:55 PM,75.2,53.6,47,29.94,-9999.0,SSE,5.8,-,N/A,,Clear,160,2013-08-17 01:55:00
7:15 PM,71.6,55.4,57,29.94,-9999.0,SSW,6.9,-,N/A,,Clear,200,2013-08-17 02:15:00
7:35 PM,68.0,55.4,64,29.94,-9999.0,South,6.9,-,N/A,,Clear,180,2013-08-17 02:35:00
7:55 PM,66.2,55.4,68,29.95,-9999.0,East,9.2,-,N/A,,Clear,90,2013-08-17 02:55:00
8:15 PM,66.2,55.4,68,29.95,-9999.0,ESE,6.9,-,N/A,,Clear,110,2013-08-17 03:15:00
8:35 PM,64.4,55.4,73,29.95,-9999.0,ESE,6.9,-,N/A,,Unknown,110,2013-08-17 03:35:00
8:55 PM,64.4,55.4,73,29.95,10.0,East,4.6,-,N/A,,Unknown,100,2013-08-17 03:55:00
9:15 PM,60.8,55.4,82,29.96,10.0,NE,4.6,-,N/A,,Unknown,40,2013-08-17 04:15:00
9:35 PM,59.0,53.6,82,29.96,10.0,Calm,Calm,-,N/A,,Unknown,0,2013-08-17 04:35:00
9:55 PM,57.2,55.4,94,29.96,10.0,North,5.8,-,N/A,,Unknown,350,2013-08-17 04:55:00
10:15 PM,57.2,57.2,100,29.96,10.0,North,4.6,-,N/A,,Unknown,10,2013-08-17 05:15:00
10:35 PM,57.2,57.2,100,29.96,10.0,NNE,4.6,-,N/A,,Unknown,20,2013-08-17 05:35:00
10:55 PM,57.2,57.2,100,29.96,10.0,NNE,6.9,-,N/A,,Unknown,20,2013-08-17 05:55:00
11:15 PM,57.2,57.2,100,29.97,10.0,North,3.5,-,N/A,,Unknown,350,2013-08-17 06:15:00
11:35 PM,55.4,55.4,100,29.97,10.0,Calm,Calm,-,N/A,,Unknown,0,2013-08-17 06:35:00
11:55 PM,55.4,55.4,100,29.97,10.0,Calm,Calm,-,N/A,,Unknown,0,2013-08-17 06:55:00